Find Starlink 32719

NORAD ID: 62448 Int'l Des: 2024-251 Owner: SPXS Country: US Constellation: starlink operational
LEOCIRCULAR

实时位置

正在加载3D地球...

关于 Starlink 32719

正在加载描述...

即将过境

Passes for default location (London). Set your location on the main map for personalized predictions.

高度历史

Loading altitude history...

两行轨道根数

1 62448U 24251S 26122.32607846 .00019615 00000-0 67266-3 0 9999
2 62448 53.1575 86.4977 0001054 82.4884 277.6236 15.30198918 75984
Epoch: May 2, 2026 • Age: 15 hours

当前状态

高度 489.8 km
速度 7.62 km/s
星下点 -42.24°S, 168.74°W
发射日期 Dec 29, 2024
运行时间 1.3 years
类型 internet

技术详情

分类 Payload
质量 730.00 kg
干质量 700.00 kg
总质量 730.00 kg
长度 0.30 m
直径 4.10 m
跨度 29.00 m
形状 Box + pan
制造商 SPXS
平台类型 Starlink V2M
阶段状态 In Orbit
所有者/国家 SPXS/US

Most Searched